sat.trackr.live / text

‹ back to catalog

STARLINK-5174

NORAD 54067 · 2022-136S

PAYLOAD ACTIVE UNKNOWN

§ Identity

Operator
Country
US
Launch date
2022-10-20
Launch site
AFETR
Launch vehicle
Mass (kg)
RCS (m²)

Purposes: comms

External: N2YO · Heavens-Above · Gunter

§ Orbital elements

Epoch: 2026-09-20T11:44:09.153312Z

Period
93.79 min
Inclination
53.1593°
Eccentricity
0.0001432
Mean motion
15.35395345 rev/d
Perigee alt
458.8 km
Apogee alt
460.7 km
Semi-major
6,837.9 km
B*
8.5025e-6
RAAN
177.6358°
Arg perigee
84.5161°
Mean anomaly
275.6006°
Rev number
21,641

§ Raw data

STARLINK-51741 54067U 22136S   26263.48899483 -.00000084  00000+0  85025-5 0  99952 54067  53.1593 177.6358 0001432  84.5161 275.6006 15.35395345216415

JSON: /api/v1/satellites/54067 · /tle

For live sub-satellite position, see the globe view (requires WebGL).

§ Visibility from observer

Set your observer location to see the next 7 days of passes ≥ 10°. The values pass through the URL so the page stays shareable.

No JS? Fill the form by hand. The geolocation button needs JavaScript.